This is the latest recevied weather packets stored in our database for station/object JF7BTK-10. If no packets are shown the sender has not sent any weather packets the latest 10 day(s).
| Time | Temp. | Humidity | Pressure | Rain* | Wind** | Luminosity | Snow |
|---|---|---|---|---|---|---|---|
| 1778135498 | 22.78° C | 41% | 1004.2 hPa | 0 mm | - | - | - |
| 1778134600 | 23.33° C | 41% | 1004.3 hPa | 0 mm | - | - | - |
| 1778133699 | 23.33° C | 40% | 1004.2 hPa | 0 mm | - | - | - |
| 1778132799 | 23.89° C | 39% | 1004.5 hPa | 0 mm | - | - | - |
| 1778131899 | 24.44° C | 38% | 1004.5 hPa | 0 mm | - | - | - |
| 1778130998 | 23.33° C | 40% | 1004.5 hPa | 0 mm | - | - | - |
| 1778130100 | 23.33° C | 42% | 1004.7 hPa | 0 mm | - | - | - |
| 1778129199 | 23.33° C | 44% | 1004.8 hPa | 0 mm | - | - | - |
| 1778128299 | 23.33° C | 46% | 1004.9 hPa | 0 mm | - | - | - |
| 1778127400 | 22.22° C | 45% | 1005.1 hPa | 0 mm | - | - | - |
| 1778126499 | 22.22° C | 51% | 1005.3 hPa | 0 mm | - | - | - |
| 1778125599 | 22.22° C | 50% | 1005.4 hPa | 0 mm | - | - | - |
| 1778124699 | 22.22° C | 50% | 1005.5 hPa | 0 mm | - | - | - |
| 1778122000 | 22.78° C | 43% | 1005.5 hPa | 0 mm | - | - | - |
| 1778121099 | 22.78° C | 48% | 1006 hPa | 0 mm | - | - | - |
| 1778120198 | 22.78° C | 49% | 1005.7 hPa | 0 mm | - | - | - |
| 1778117499 | 23.89° C | 41% | 1005.9 hPa | 0 mm | - | - | - |
| 1778116598 | 23.33° C | 42% | 1005.9 hPa | 0 mm | - | - | - |
| 1778115700 | 22.78° C | 41% | 1005.8 hPa | 0 mm | - | - | - |
| 1778114799 | 23.33° C | 41% | 1006.2 hPa | 0 mm | - | - | - |
| 1778113000 | 22.78° C | 41% | 1006.1 hPa | 0 mm | - | - | - |
| 1778112099 | 22.22° C | 42% | 1006.1 hPa | 0 mm | - | - | - |
| 1778111199 | 22.22° C | 44% | 1006.2 hPa | 0 mm | - | - | - |
| 1778110299 | 21.67° C | 47% | 1006.5 hPa | 0 mm | - | - | - |
| 1778109398 | 21.11° C | 48% | 1006.7 hPa | 0 mm | - | - | - |
* Rain latest hour (hover to see other rain measurements)
** Current wind speed in m/s (hover to see current wind gust speed)